sat.trackr.live / text

‹ back to catalog

GRUS-1C

NORAD 47933 · 2021-022B

PAYLOAD ACTIVE UNKNOWN

§ Identity

Operator
Country
JPN
Launch date
2021-03-22
Launch site
TYMSC
Launch vehicle
Mass (kg)
RCS (m²)

External: N2YO · Heavens-Above · Gunter

§ Orbital elements

Epoch: 2026-09-20T22:15:54.637344Z

Period
96.08 min
Inclination
97.5189°
Eccentricity
0.0012694
Mean motion
14.98826642 rev/d
Perigee alt
561.7 km
Apogee alt
579.3 km
Semi-major
6,948.7 km
B*
4.4024e-5
RAAN
143.7680°
Arg perigee
358.5384°
Mean anomaly
1.5800°
Rev number
30,024

§ Raw data

GRUS-1C1 47933U 21022B   26263.92771571  .00000475  00000+0  44024-4 0  99942 47933  97.5189 143.7680 0012694 358.5384   1.5800 14.98826642300247

JSON: /api/v1/satellites/47933 · /tle

For live sub-satellite position, see the globe view (requires WebGL).

§ Visibility from observer

Set your observer location to see the next 7 days of passes ≥ 10°. The values pass through the URL so the page stays shareable.

No JS? Fill the form by hand. The geolocation button needs JavaScript.

§ Radio — SatNOGS DB

ModeDescriptionDownlinkUplink
FM S-band telemetry 2.276 GHz

1 transmitter · refreshed weekly from db.satnogs.org